This is the latest recevied weather packets stored in our database for station/object VK5GR-12. If no packets are shown the sender has not sent any weather packets the latest 10 day(s).
| Time | Temp. | Humidity | Pressure | Rain* | Wind** | Luminosity | Snow |
|---|---|---|---|---|---|---|---|
| 1777719950 | 13.89° C | 94% | 1010.8 hPa | 0 mm | - | 0 W/m² | - |
| 1777719048 | 14.44° C | 95% | 1010.8 hPa | 0 mm | - | 0 W/m² | - |
| 1777718146 | 13.89° C | 95% | 1010.8 hPa | 0 mm | - | 0 W/m² | - |
| 1777717243 | 13.89° C | 95% | 1010.5 hPa | 0 mm | - | 0 W/m² | - |
| 1777716343 | 13.89° C | 96% | 1010.6 hPa | 0 mm | - | 0 W/m² | - |
| 1777715442 | 13.89° C | 96% | 1010.6 hPa | 0 mm | - | 0 W/m² | - |
| 1777714541 | 13.89° C | 96% | 1010.6 hPa | 0 mm | - | 0 W/m² | - |
| 1777713639 | 14.44° C | 96% | 1010.2 hPa | 0 mm | - | 0 W/m² | - |
| 1777712735 | 14.44° C | 96% | 1010.1 hPa | 0 mm | - | 0 W/m² | - |
| 1777711831 | 14.44° C | 96% | 1010.1 hPa | 0 mm | - | 0 W/m² | - |
| 1777710931 | 14.44° C | 96% | 1010.1 hPa | 0 mm | - | 0 W/m² | - |
| 1777710028 | 14.44° C | 96% | 1010 hPa | 0 mm | - | 0 W/m² | - |
| 1777709126 | 14.44° C | 96% | 1009.8 hPa | 0 mm | - | 1 W/m² | - |
| 1777708225 | 14.44° C | 96% | 1010 hPa | 0 mm | - | 3 W/m² | - |
| 1777707320 | 14.44° C | 96% | 1010 hPa | 0 mm | - | 6 W/m² | - |
| 1777706418 | 14.44° C | 96% | 1010 hPa | 0 mm | - | 7 W/m² | - |
| 1777705517 | 14.44° C | 96% | 1010.1 hPa | 0 mm | - | 5 W/m² | - |
| 1777704617 | 14.44° C | 96% | 1009.9 hPa | 4.32 mm | - | 18 W/m² | - |
| 1777703716 | 14.44° C | 96% | 1009.9 hPa | 3.05 mm | - | 7 W/m² | - |
| 1777702815 | 15° C | 95% | 1009.4 hPa | 0 mm | - | 29 W/m² | - |
| 1777701909 | 15° C | 95% | 1009.4 hPa | 0 mm | - | 26 W/m² | - |
| 1777701009 | 15° C | 95% | 1009.6 hPa | 1.27 mm | - | 69 W/m² | - |
| 1777700107 | 15.56° C | 95% | 1009.6 hPa | 1.78 mm | - | 40 W/m² | - |
| 1777699207 | 15.56° C | 95% | 1009.3 hPa | 0 mm | - | 35 W/m² | - |
| 1777698303 | 15.56° C | 94% | 1009.3 hPa | 3.05 mm | - | 25 W/m² | - |
* Rain latest hour (hover to see other rain measurements)
** Current wind speed in m/s (hover to see current wind gust speed)